Wind_Speed
34 35 36 35 34 33 34 34 34 34 35 34 35 37 37 38 38 38 38 37 37 37 38 39 39 39 40 41 42 42 43 43 44 45 45 46 46 47 48 49 49 49 50 50
34 34 35 35 35 34 34 33 34 35 34 34 35 35 36 36 37 36 37 36 36 36 36 37 38 39 39 40 41 41 41 42 43 43 44 45 46 47 47 47 47 48 49 50
33 32 33 33 32 32 32 33 34 35 35 35 36 36 36 36 36 35 35 35 35 35 35 36 36 37 39 40 40 40 40 41 41 42 42 44 45 46 46 46 48 49 49 49
33 33 33 32 32 31 32 33 34 34 35 36 35 35 36 35 35 35 35 35 35 36 36 37 37 38 38 38 39 39 40 39 40 41 42 42 43 44 45 47 48 48 48 48
31 32 32 31 31 32 32 31 31 33 33 34 34 34 34 35 35 36 36 36 36 36 36 36 37 37 37 37 37 37 38 38 39 39 40 41 42 43 44 45 46 47 47 48
30 31 31 31 31 31 32 32 32 33 34 34 34 34 33 34 35 35 36 36 36 36 36 36 36 36 35 35 36 36 37 37 39 39 39 40 41 42 43 43 44 45 46 46
30 31 31 31 30 30 31 32 32 33 33 33 33 34 34 34 35 36 37 37 37 37 37 37 36 36 35 35 36 37 37 37 39 39 40 40 41 41 42 43 43 44 45 46
30 31 31 31 31 31 31 32 32 33 33 33 33 33 33 33 34 34 35 36 36 37 37 37 36 36 36 36 36 37 37 38 39 39 40 40 41 41 42 42 43 44 45 46
30 30 31 31 31 31 32 32 31 31 32 32 32 32 32 32 32 33 33 34 35 35 35 35 35 35 36 36 37 37 37 38 38 38 39 40 40 41 42 42 43 44 45 45
31 31 32 32 32 32 32 32 32 31 31 31 30 30 30 30 31 32 32 33 34 34 34 34 34 34 35 36 36 36 36 36 36 37 38 39 40 40 41 42 42 42 42 43
30 30 31 31 32 32 32 32 31 31 31 30 30 29 29 30 30 31 32 32 32 33 33 33 33 34 34 35 35 35 35 35 36 37 38 38 38 39 39 39 40 40 41 41
29 28 29 29 30 31 31 30 30 30 30 30 30 30 31 31 31 31 31 31 32 32 32 32 32 33 33 33 33 34 34 34 35 35 36 37 37 37 37 38 39 40 40 41
27 26 27 28 28 28 28 28 28 28 28 29 29 29 29 29 30 30 30 31 31 31 31 31 31 31 32 32 32 33 34 34 35 35 36 36 36 36 36 37 38 39 40 41
26 26 26 27 27 27 27 27 26 27 27 28 28 28 28 28 28 29 29 29 30 30 30 30 31 31 31 32 32 33 33 33 34 34 35 35 35 36 36 37 38 39 39 40
25 26 27 26 26 26 26 26 26 26 26 26 26 27 27 27 27 27 27 28 28 28 29 29 30 30 31 31 32 33 33 34 34 34 35 35 35 36 37 37 38 38 39 39
24 25 26 26 25 26 26 25 25 25 25 26 26 27 27 27 27 27 27 27 27 27 28 28 28 29 30 31 31 32 33 34 34 34 34 35 36 37 37 37 38 38 38 39
25 25 26 26 26 25 25 24 25 25 25 26 27 27 27 27 26 27 27 28 28 28 28 28 28 28 29 30 31 32 33 33 33 34 34 35 36 36 36 36 37 37 37 37
26 26 26 26 26 25 25 25 25 26 26 27 27 26 26 26 26 26 27 27 28 28 28 28 28 29 30 30 31 31 32 32 33 33 34 34 34 34 34 34 35 36 36 36
25 25 25 25 26 26 26 26 26 26 26 26 25 25 26 26 26 26 27 27 27 28 28 28 29 29 30 30 31 30 31 31 32 32 33 34 33 33 34 34 34 35 35 35
25 25 26 26 26 26 26 25 26 26 26 25 24 24 24 24 25 26 27 27 27 28 28 28 29 30 30 30 30 30 30 31 31 32 32 32 32 32 32 33 33 33 33 33
25 25 26 26 26 25 25 24 25 24 24 24 23 23 23 24 24 25 25 26 27 27 28 28 29 29 29 30 30 30 31 31 31 31 31 31 31 31 31 31 31 31 31 31
25 25 25 25 25 25 25 25 24 23 23 24 24 24 24 24 24 24 24 25 26 27 27 28 28 29 29 30 30 30 30 30 30 30 30 30 30 30 30 30 30 30 30 30
25 25 25 24 24 24 25 25 25 24 24 24 25 25 25 25 24 24 25 26 26 27 27 28 28 29 29 29 29 30 30 30 29 29 29 29 29 29 29 29 29 29 28 28
25 24 24 25 25 25 25 24 24 25 25 25 25 25 25 25 25 26 26 26 26 26 27 27 28 29 29 29 29 29 29 29 29 28 28 28 28 28 27 27 27 27 27 26
24 24 25 25 25 25 25 25 24 25 25 25 25 25 25 26 26 26 26 26 26 26 27 27 28 28 28 28 28 28 28 28 28 28 28 27 27 26 26 26 26 26 25 24
25 25 25 25 26 26 25 25 25 25 25 25 25 25 25 25 25 25 25 25 25 26 26 26 27 27 27 27 27 28 28 28 27 27 26 26 26 25 25 25 25 24 23 22
25 26 26 26 26 26 25 25 25 25 25 25 25 25 25 24 24 25 25 25 25 25 25 26 27 27 27 27 27 27 27 26 26 25 25 25 25 24 24 24 23 22 21 20
Wind_Direction
280 280 279 278 278 278 277 277 278 278 278 279 279 278 276 275 274 274 275 275 275 274 273 273 273 273 272 271 270 269 269 268 267 266 265 265 265 266 267 268 266 265 264 265
280 280 279 278 278 278 276 275 277 278 279 279 279 279 278 276 275 275 276 276 276 275 275 275 274 273 272 272 272 271 270 270 269 268 267 267 267 267 268 267 266 265 266 266
281 279 278 277 279 278 277 277 278 279 279 278 277 277 278 277 276 276 276 277 276 275 276 276 276 276 274 273 272 272 272 271 270 268 268 268 268 268 268 269 268 267 267 268
281 280 278 280 279 279 278 278 278 279 279 278 278 277 276 275 274 275 275 277 277 277 277 278 277 277 276 274 273 273 272 272 271 270 270 270 269 269 269 269 269 269 269 269
283 281 281 281 281 281 281 281 281 281 280 280 279 277 275 274 273 275 277 278 278 279 279 279 279 278 276 274 273 273 272 271 270 271 272 271 271 271 271 269 269 269 269 270
283 283 284 286 285 284 282 282 283 284 284 283 281 279 277 276 276 277 278 279 279 279 279 279 279 277 275 274 274 274 273 272 272 272 273 273 273 273 272 271 270 270 270 271
282 283 285 286 286 286 286 286 285 285 284 284 282 281 280 279 278 279 279 279 278 279 279 279 279 278 276 276 275 275 274 274 274 275 275 275 275 275 274 273 273 272 272 272
283 283 285 288 287 285 285 284 284 284 284 284 284 283 282 281 280 279 280 279 279 279 279 279 278 277 277 277 277 277 276 276 276 276 277 277 276 276 276 275 275 274 274 274
283 284 285 285 285 285 284 284 285 284 284 284 284 284 283 283 282 281 281 281 281 281 281 279 279 279 278 278 278 278 277 278 278 278 278 278 278 278 277 277 277 277 277 277
281 281 283 284 285 286 285 285 285 285 284 285 285 285 284 284 285 284 284 284 284 283 282 281 280 279 279 279 279 278 278 278 277 278 280 281 280 280 279 278 279 279 278 278
283 284 284 284 287 288 287 287 286 285 285 284 285 285 284 285 286 287 288 288 286 286 284 283 282 282 282 281 280 280 280 280 280 281 282 282 281 281 281 280 280 280 279 279
288 288 287 287 287 288 288 287 286 285 285 284 284 284 285 286 287 288 289 289 288 287 286 285 285 285 285 283 282 282 282 282 283 284 284 284 284 283 282 282 281 281 281 282
290 290 289 289 290 290 290 289 288 287 286 286 286 286 286 287 287 289 289 289 289 288 288 287 286 287 286 286 284 284 284 284 285 286 286 286 285 285 284 283 283 283 283 283
290 290 291 291 291 291 290 289 288 289 290 290 289 288 288 288 289 289 289 289 289 289 289 288 288 287 287 287 285 285 286 286 286 286 286 286 286 285 285 285 285 285 285 284
290 291 292 292 292 292 292 291 290 289 290 291 291 290 289 289 289 290 290 290 291 291 290 291 290 289 289 288 287 287 287 286 286 287 287 286 286 286 286 286 286 286 285 285
290 292 293 293 294 294 293 292 291 290 290 291 292 292 291 290 289 290 291 293 293 293 293 293 293 292 292 292 291 290 289 289 288 288 287 287 287 287 288 287 287 287 286 286
292 293 294 293 293 293 293 293 292 291 291 292 292 292 291 290 290 290 292 293 293 294 294 294 295 295 295 295 295 294 293 291 290 289 289 289 289 289 289 289 289 289 288 288
293 293 293 293 293 293 293 293 294 294 294 294 294 293 291 290 291 291 292 293 294 294 294 294 295 296 296 296 297 296 295 294 292 291 292 292 291 291 291 291 291 291 290 290
294 293 293 293 293 293 293 293 293 295 296 296 295 293 292 291 291 291 292 294 294 294 294 294 295 296 297 298 298 299 299 298 297 295 294 294 293 292 293 293 293 293 292 291
296 294 295 294 294 294 294 294 295 297 298 298 297 296 296 295 294 293 293 294 294 294 295 295 296 297 299 299 299 300 301 302 301 299 297 296 296 296 296 296 296 295 295 294
295 295 296 295 295 296 295 295 296 298 299 298 298 299 298 298 298 297 296 297 297 296 297 297 298 300 300 300 301 302 303 304 303 302 301 300 299 299 299 298 298 298 298 297
295 295 296 296 296 296 295 296 297 298 299 298 298 299 299 300 300 300 299 299 299 299 300 300 300 301 302 303 303 304 304 305 304 304 303 303 302 302 301 299 299 299 299 298
295 295 296 296 296 296 296 296 297 297 297 297 297 298 298 299 299 300 300 300 300 300 301 302 302 303 303 304 304 305 306 306 305 305 304 304 304 304 302 301 300 300 300 298
297 297 297 296 297 297 296 296 296 296 297 297 297 298 298 298 298 299 301 302 302 302 302 302 303 304 304 305 305 306 306 306 306 306 306 305 304 304 304 304 303 303 301 300
298 297 298 297 298 298 297 297 297 297 297 297 297 298 298 298 299 300 301 302 303 303 303 303 304 305 306 306 307 307 307 306 305 305 305 305 304 304 306 307 307 306 304 302
298 298 297 297 297 298 297 297 297 297 298 298 298 298 299 300 301 301 302 303 304 305 305 305 306 308 308 308 307 308 308 307 306 305 306 306 306 306 307 308 309 308 307 305
298 298 298 297 297 297 297 297 297 297 297 298 298 298 299 299 301 302 303 304 305 306 307 308 308 309 309 309 308 309 309 309 309 308 307 306 306 307 308 309 310 310 309 308
Height
5561 5559 5558 5557 5557 5556 5555 5554 5553 5553 5553 5553 5550 5549 5548 5547 5546 5546 5546 5545 5544 5543 5542 5541 5541 5540 5540 5539 5539 5538 5539 5539 5539 5540 5540 5541 5541 5541 5540 5540 5540 5540 5541 5541
5551 5550 5548 5548 5548 5546 5545 5544 5544 5543 5543 5543 5540 5539 5538 5537 5536 5536 5535 5534 5533 5532 5531 5530 5530 5529 5528 5527 5527 5526 5526 5526 5526 5527 5527 5527 5527 5527 5527 5526 5526 5527 5527 5527
5541 5540 5538 5538 5539 5538 5537 5536 5535 5534 5534 5532 5531 5529 5528 5527 5527 5526 5525 5524 5523 5522 5521 5520 5519 5517 5517 5516 5515 5515 5514 5514 5514 5514 5514 5514 5514 5514 5513 5513 5513 5513 5512 5512
5531 5530 5529 5533 5530 5529 5528 5527 5525 5524 5523 5521 5520 5520 5518 5517 5517 5516 5516 5514 5513 5512 5510 5509 5508 5506 5505 5504 5504 5503 5502 5502 5502 5502 5502 5501 5501 5500 5500 5500 5499 5499 5499 5498
5522 5520 5520 5522 5521 5520 5519 5518 5517 5514 5513 5512 5510 5510 5509 5508 5507 5506 5505 5504 5503 5501 5500 5499 5497 5495 5494 5493 5492 5491 5491 5490 5490 5490 5489 5489 5488 5487 5487 5486 5486 5485 5485 5484
5514 5512 5512 5514 5512 5510 5510 5509 5508 5505 5504 5502 5501 5501 5501 5499 5497 5496 5495 5494 5493 5491 5490 5488 5487 5485 5484 5482 5481 5481 5480 5479 5478 5478 5477 5476 5475 5475 5474 5473 5472 5471 5471 5470
5506 5504 5504 5505 5504 5502 5502 5501 5498 5496 5494 5493 5492 5491 5490 5489 5487 5486 5485 5484 5482 5481 5479 5478 5476 5474 5473 5472 5471 5470 5469 5468 5467 5466 5465 5464 5463 5462 5461 5460 5459 5458 5457 5456
5499 5498 5499 5497 5495 5494 5493 5491 5489 5487 5485 5484 5483 5481 5480 5479 5477 5476 5474 5473 5471 5470 5469 5467 5465 5464 5463 5461 5460 5459 5458 5457 5456 5455 5453 5452 5451 5450 5448 5447 5445 5444 5443 5442
5492 5492 5490 5488 5486 5485 5483 5482 5480 5478 5477 5475 5474 5473 5471 5469 5468 5466 5465 5463 5461 5460 5458 5456 5455 5453 5452 5450 5449 5448 5447 5446 5444 5443 5442 5441 5439 5437 5436 5434 5433 5431 5430 5428
5483 5483 5481 5480 5477 5476 5474 5473 5471 5470 5468 5467 5465 5464 5462 5460 5459 5457 5455 5453 5451 5450 5448 5446 5444 5443 5441 5440 5438 5437 5436 5435 5433 5432 5431 5429 5427 5425 5423 5421 5420 5418 5416 5415
5474 5474 5472 5471 5469 5467 5465 5463 5462 5460 5459 5458 5456 5455 5453 5452 5450 5448 5446 5444 5442 5440 5438 5436 5435 5433 5431 5429 5428 5427 5425 5424 5422 5421 5419 5417 5415 5413 5411 5409 5407 5405 5404 5402
5467 5466 5464 5463 5461 5459 5457 5455 5453 5451 5450 5448 5447 5446 5444 5443 5441 5439 5437 5435 5433 5431 5429 5427 5425 5423 5421 5419 5418 5416 5415 5413 5412 5410 5408 5406 5404 5402 5399 5397 5395 5392 5390 5388
5459 5457 5455 5454 5452 5450 5448 5446 5444 5443 5441 5440 5439 5437 5435 5434 5432 5430 5428 5426 5424 5422 5420 5418 5416 5414 5411 5409 5408 5406 5405 5403 5401 5399 5397 5395 5392 5390 5388 5386 5383 5380 5378 5375
5452 5449 5448 5446 5444 5442 5440 5438 5436 5435 5433 5432 5430 5429 5427 5426 5424 5422 5420 5418 5416 5414 5411 5409 5407 5405 5402 5400 5398 5396 5394 5392 5390 5388 5386 5384 5381 5379 5376 5374 5372 5368 5365 5362
5445 5443 5441 5439 5437 5434 5432 5431 5429 5427 5426 5424 5422 5421 5419 5417 5415 5414 5412 5409 5407 5405 5403 5401 5398 5396 5393 5391 5389 5387 5384 5382 5380 5378 5375 5373 5370 5368 5365 5362 5360 5357 5354 5351
5438 5436 5433 5431 5429 5427 5425 5423 5422 5420 5418 5417 5415 5413 5411 5409 5407 5405 5403 5401 5399 5397 5395 5392 5390 5387 5384 5382 5379 5377 5374 5372 5369 5367 5364 5362 5359 5356 5354 5351 5348 5345 5342 5339
5431 5429 5427 5424 5422 5420 5418 5416 5414 5413 5411 5409 5407 5405 5403 5401 5399 5398 5396 5393 5391 5389 5386 5384 5381 5378 5376 5373 5370 5367 5364 5362 5359 5356 5354 5351 5348 5345 5342 5339 5336 5332 5329 5326
5424 5421 5419 5417 5415 5413 5411 5409 5407 5405 5403 5401 5399 5397 5395 5393 5391 5389 5388 5385 5383 5381 5378 5375 5373 5370 5367 5365 5362 5358 5355 5352 5349 5346 5343 5340 5337 5334 5330 5327 5324 5321 5318 5314
5416 5414 5412 5410 5408 5406 5404 5402 5400 5398 5396 5393 5391 5389 5387 5385 5383 5381 5379 5377 5375 5373 5370 5367 5365 5362 5359 5356 5353 5349 5346 5342 5339 5336 5332 5329 5326 5323 5319 5316 5313 5309 5306 5302
5409 5407 5405 5403 5401 5399 5396 5394 5392 5390 5388 5386 5384 5381 5379 5377 5375 5373 5371 5369 5366 5364 5361 5359 5356 5353 5350 5347 5344 5340 5337 5333 5329 5326 5322 5319 5315 5312 5309 5305 5302 5299 5295 5292
5402 5400 5398 5396 5394 5391 5389 5387 5385 5383 5381 5379 5377 5375 5372 5370 5368 5365 5363 5361 5358 5356 5353 5350 5348 5345 5342 5338 5335 5332 5328 5324 5320 5316 5313 5309 5306 5302 5299 5295 5292 5289 5285 5282
5395 5393 5391 5389 5387 5384 5382 5380 5378 5376 5374 5372 5370 5368 5365 5363 5360 5358 5356 5353 5351 5348 5345 5342 5339 5336 5333 5330 5326 5323 5319 5315 5311 5308 5304 5300 5297 5293 5290 5286 5283 5280 5276 5273
5388 5386 5384 5382 5380 5377 5375 5373 5371 5369 5367 5365 5363 5360 5358 5356 5353 5351 5349 5346 5343 5340 5337 5334 5331 5328 5325 5321 5318 5314 5310 5307 5303 5299 5296 5292 5289 5285 5281 5278 5274 5271 5267 5264
5381 5379 5377 5375 5373 5370 5368 5366 5364 5362 5360 5358 5355 5353 5351 5349 5346 5344 5341 5338 5335 5332 5329 5326 5323 5320 5317 5313 5310 5306 5302 5298 5295 5291 5288 5284 5280 5277 5273 5269 5266 5262 5259 5255
5374 5372 5370 5368 5365 5363 5361 5359 5357 5354 5352 5350 5348 5346 5343 5341 5339 5336 5333 5330 5328 5325 5321 5318 5315 5312 5308 5305 5301 5298 5294 5290 5287 5283 5280 5276 5272 5269 5265 5261 5258 5254 5251 5247
5367 5365 5363 5360 5358 5356 5353 5351 5349 5347 5345 5342 5340 5338 5336 5333 5331 5328 5326 5323 5320 5317 5314 5310 5307 5304 5300 5297 5293 5290 5286 5282 5279 5275 5272 5268 5265 5261 5258 5254 5251 5247 5244 5241
5360 5357 5355 5353 5350 5348 5346 5343 5341 5339 5337 5335 5333 5330 5328 5326 5323 5321 5318 5315 5312 5309 5306 5303 5299 5296 5293 5289 5285 5282 5278 5275 5271 5268 5264 5261 5258 5254 5251 5247 5244 5241 5238 5235